Precipitable_Water
2.22 2.30 2.22 1.93 1.34 1.27 1.06 1.11 1.33 1.21 1.28 1.53 1.55 1.41 1.35 1.45 1.28 1.10 2.06 2.28 2.29 2.21 2.22 2.24 2.22 2.08 1.93 1.74 1.59 1.58 1.52 1.48 1.46 1.43 1.41 1.43 1.50 1.54 1.55 1.57 1.57 1.59 1.63 1.72 1.70 1.77 1.84 1.89 1.90
2.26 2.14 2.02 1.55 1.11 0.96 0.95 1.17 1.10 1.23 1.41 1.55 1.53 1.49 1.40 1.31 1.67 1.74 1.88 2.18 2.19 2.15 2.17 2.18 2.04 1.85 1.71 1.54 1.54 1.53 1.49 1.50 1.43 1.41 1.45 1.49 1.51 1.54 1.55 1.55 1.56 1.57 1.61 1.65 1.69 1.71 1.77 1.87 1.89
2.18 2.08 1.45 1.25 1.09 0.90 0.90 1.13 1.18 1.30 1.42 1.41 1.37 1.55 1.46 1.41 1.71 1.80 2.02 2.07 2.11 2.08 2.12 2.09 1.86 1.75 1.61 1.54 1.55 1.55 1.51 1.48 1.40 1.49 1.53 1.52 1.59 1.56 1.53 1.58 1.61 1.58 1.62 1.65 1.67 1.68 1.72 1.71 1.77
1.84 1.62 1.55 1.11 0.96 1.08 1.08 1.19 1.25 1.25 1.36 1.44 1.42 1.27 1.58 1.82 1.76 1.91 2.00 2.04 1.97 1.96 2.03 1.89 1.73 1.64 1.59 1.57 1.56 1.57 1.49 1.43 1.46 1.59 1.56 1.64 1.69 1.63 1.59 1.67 1.69 1.65 1.67 1.68 1.68 1.68 1.69 1.71 1.76
1.86 1.46 1.01 0.96 1.02 1.11 1.22 1.26 1.25 1.14 1.21 1.26 1.34 1.19 1.35 1.75 1.94 1.96 1.90 1.95 1.85 1.87 1.88 1.77 1.60 1.52 1.56 1.54 1.55 1.55 1.52 1.50 1.56 1.60 1.61 1.73 1.72 1.66 1.70 1.75 1.78 1.80 1.79 1.81 1.77 1.78 1.79 1.80 1.85
1.37 1.40 0.97 0.83 0.90 1.10 1.23 1.30 1.24 1.14 1.18 1.21 1.19 1.20 1.36 1.76 1.76 1.84 1.88 1.84 1.88 1.73 1.71 1.68 1.58 1.50 1.52 1.54 1.54 1.51 1.52 1.54 1.64 1.66 1.67 1.75 1.74 1.75 1.76 1.77 1.75 1.79 1.80 1.80 1.79 1.83 1.87 1.84 1.85
1.21 1.12 0.92 0.92 0.90 0.97 1.09 1.27 1.09 1.10 1.06 1.08 1.26 1.07 1.34 1.50 1.72 1.80 1.79 1.81 1.78 1.73 1.62 1.59 1.55 1.55 1.57 1.55 1.54 1.51 1.53 1.56 1.66 1.65 1.71 1.78 1.78 1.75 1.69 1.67 1.65 1.64 1.62 1.61 1.64 1.65 1.69 1.69 1.67
1.30 1.14 0.93 0.94 0.88 0.91 1.17 1.18 1.12 1.03 0.95 1.25 1.30 0.98 1.04 1.39 1.63 1.67 1.68 1.65 1.63 1.59 1.55 1.54 1.57 1.59 1.56 1.56 1.56 1.53 1.55 1.57 1.67 1.66 1.72 1.79 1.73 1.71 1.64 1.58 1.52 1.52 1.54 1.55 1.60 1.62 1.62 1.57 1.51
1.48 0.94 0.78 0.84 0.93 0.97 1.21 1.10 1.22 1.22 0.99 1.08 1.17 1.14 1.28 1.46 1.53 1.49 1.45 1.44 1.45 1.47 1.47 1.51 1.49 1.52 1.52 1.53 1.55 1.54 1.52 1.54 1.61 1.62 1.75 1.80 1.69 1.68 1.65 1.60 1.55 1.54 1.62 1.67 1.64 1.61 1.57 1.45 1.46
1.18 0.98 0.88 0.95 1.00 0.97 1.18 1.13 1.14 1.06 0.92 0.90 1.04 1.14 1.28 1.35 1.31 1.25 1.22 1.18 1.24 1.31 1.37 1.46 1.46 1.44 1.47 1.50 1.52 1.53 1.51 1.53 1.57 1.60 1.68 1.75 1.75 1.74 1.73 1.69 1.70 1.66 1.66 1.72 1.66 1.59 1.57 1.54 1.45
1.17 0.92 1.05 0.98 0.97 1.06 1.16 1.20 1.25 1.07 0.84 0.84 0.86 1.01 1.15 1.17 1.17 1.16 1.17 1.16 1.15 1.28 1.36 1.42 1.45 1.48 1.46 1.45 1.48 1.50 1.48 1.52 1.57 1.58 1.67 1.79 1.78 1.78 1.72 1.69 1.76 1.69 1.71 1.63 1.63 1.63 1.61 1.54 1.47
0.88 1.01 1.08 0.99 0.95 1.06 1.08 1.24 1.17 1.13 1.01 1.03 1.01 0.94 1.10 1.07 1.10 1.11 1.11 1.14 1.14 1.23 1.29 1.40 1.44 1.43 1.45 1.47 1.43 1.43 1.41 1.44 1.48 1.56 1.63 1.69 1.67 1.75 1.73 1.70 1.66 1.62 1.70 1.64 1.58 1.59 1.58 1.52 1.49
0.83 0.89 1.00 0.98 0.94 0.91 1.05 1.05 1.09 1.13 1.23 1.25 1.10 1.01 0.97 1.06 1.12 1.17 1.20 1.20 1.19 1.20 1.27 1.36 1.40 1.38 1.42 1.41 1.45 1.41 1.36 1.36 1.43 1.56 1.61 1.65 1.64 1.65 1.73 1.67 1.65 1.63 1.66 1.68 1.67 1.67 1.59 1.46 1.38
0.75 0.78 0.80 0.82 0.74 0.80 0.74 0.90 1.09 1.16 1.32 1.26 1.15 1.11 0.94 1.02 1.08 1.15 1.17 1.13 1.18 1.22 1.25 1.33 1.33 1.36 1.41 1.38 1.41 1.37 1.37 1.39 1.47 1.54 1.63 1.67 1.74 1.77 1.76 1.68 1.71 1.67 1.66 1.71 1.65 1.59 1.56 1.41 1.44
0.64 0.61 0.65 0.65 0.65 0.65 0.73 0.77 0.83 1.15 1.29 1.24 1.18 1.20 1.03 1.00 1.11 1.06 1.09 1.09 1.20 1.25 1.27 1.27 1.29 1.34 1.32 1.32 1.32 1.31 1.37 1.46 1.45 1.56 1.69 1.76 1.79 1.79 1.80 1.72 1.62 1.63 1.68 1.61 1.59 1.52 1.46 1.32 1.30
0.51 0.53 0.48 0.57 0.59 0.58 0.69 0.53 0.81 1.10 1.20 1.21 1.20 1.21 1.12 0.93 1.04 1.09 1.14 1.13 1.28 1.33 1.26 1.28 1.31 1.31 1.27 1.26 1.25 1.24 1.33 1.46 1.55 1.63 1.65 1.84 1.81 1.79 1.78 1.68 1.54 1.61 1.64 1.56 1.47 1.47 1.31 1.24 1.23
0.42 0.39 0.44 0.49 0.56 0.58 0.63 0.55 0.75 1.01 1.09 1.14 1.13 1.12 1.08 1.00 1.03 1.08 1.17 1.19 1.29 1.33 1.30 1.27 1.26 1.21 1.20 1.21 1.21 1.24 1.34 1.45 1.53 1.72 1.71 1.81 1.83 1.84 1.73 1.68 1.64 1.64 1.56 1.47 1.43 1.34 1.20 1.09 1.04
0.32 0.39 0.43 0.43 0.50 0.56 0.61 0.59 0.74 0.95 1.06 1.06 1.13 1.13 1.04 1.02 0.84 1.01 1.12 1.23 1.32 1.36 1.39 1.44 1.35 1.27 1.27 1.32 1.25 1.31 1.46 1.54 1.65 1.65 1.70 1.72 1.74 1.75 1.75 1.71 1.68 1.59 1.43 1.36 1.36 1.20 1.15 0.95 0.94
0.38 0.40 0.42 0.47 0.51 0.51 0.56 0.61 0.77 0.94 1.02 1.04 1.07 1.13 1.01 0.96 0.91 1.04 1.10 1.23 1.34 1.38 1.40 1.42 1.40 1.35 1.42 1.34 1.20 1.27 1.32 1.43 1.51 1.56 1.61 1.67 1.75 1.74 1.71 1.64 1.62 1.49 1.31 1.30 1.27 1.17 1.10 0.98 1.02
0.31 0.36 0.41 0.46 0.49 0.47 0.43 0.55 0.69 0.87 0.90 0.97 1.04 1.08 1.07 0.99 0.94 0.90 1.00 1.12 1.21 1.25 1.30 1.33 1.34 1.39 1.38 1.43 1.38 1.33 1.37 1.41 1.49 1.55 1.60 1.62 1.61 1.71 1.65 1.60 1.56 1.41 1.30 1.27 1.28 1.27 1.16 1.10 1.21
0.24 0.29 0.40 0.41 0.45 0.49 0.46 0.42 0.53 0.80 0.94 1.05 1.12 1.08 1.11 1.07 0.98 0.87 0.84 0.92 1.06 1.13 1.19 1.21 1.24 1.26 1.33 1.40 1.42 1.40 1.46 1.45 1.40 1.44 1.48 1.53 1.56 1.57 1.56 1.63 1.51 1.40 1.38 1.28 1.39 1.40 1.25 0.95 1.20
0.18 0.30 0.40 0.42 0.38 0.34 0.48 0.30 0.48 0.65 0.76 0.86 0.96 1.02 1.06 1.11 1.10 1.05 0.96 0.98 0.91 0.97 1.13 1.18 1.25 1.28 1.32 1.41 1.33 1.27 1.19 1.16 1.26 1.28 1.37 1.48 1.51 1.48 1.51 1.49 1.42 1.42 1.44 1.38 1.45 1.47 1.30 1.08 1.10
0.18 0.28 0.33 0.41 0.40 0.37 0.37 0.32 0.35 0.52 0.67 0.75 0.89 0.92 0.99 1.04 1.07 1.05 1.01 0.93 1.00 0.93 0.96 1.05 1.13 1.20 1.27 1.29 1.29 1.23 1.21 1.25 1.28 1.29 1.33 1.36 1.42 1.45 1.41 1.46 1.40 1.44 1.48 1.46 1.45 1.43 1.34 1.16 1.18
0.22 0.22 0.27 0.33 0.35 0.28 0.32 0.32 0.28 0.38 0.55 0.73 0.84 0.94 0.98 1.04 1.07 1.07 1.06 1.06 1.06 1.13 0.94 1.01 1.03 1.06 1.19 1.24 1.26 1.22 1.17 1.21 1.21 1.25 1.26 1.21 1.36 1.40 1.32 1.37 1.44 1.52 1.52 1.46 1.45 1.45 1.39 1.17 1.20
0.21 0.18 0.15 0.17 0.21 0.20 0.33 0.31 0.28 0.41 0.52 0.64 0.73 0.85 0.93 1.00 1.07 1.07 1.10 1.08 1.13 1.13 1.16 0.96 1.00 1.02 1.12 1.17 1.21 1.22 1.21 1.23 1.22 1.24 1.21 1.15 1.18 1.29 1.23 1.30 1.42 1.52 1.53 1.45 1.46 1.40 1.34 1.22 1.11
0.18 0.17 0.13 0.11 0.14 0.19 0.30 0.21 0.26 0.41 0.55 0.66 0.72 0.76 0.86 0.90 0.98 1.06 1.13 1.13 1.13 1.15 1.20 1.24 1.16 0.98 1.06 1.11 1.14 1.22 1.25 1.23 1.24 1.28 1.28 1.19 1.12 1.18 1.28 1.33 1.46 1.51 1.55 1.46 1.43 1.37 1.28 1.24 1.19
0.19 0.17 0.19 0.15 0.18 0.16 0.20 0.24 0.31 0.38 0.47 0.58 0.64 0.71 0.74 0.84 0.94 1.04 1.14 1.20 1.18 1.18 1.18 1.25 1.26 1.21 1.16 1.14 1.20 1.25 1.30 1.26 1.22 1.25 1.29 1.22 1.21 1.20 1.27 1.34 1.42 1.48 1.54 1.51 1.42 1.34 1.24 1.21 1.19
0.24 0.23 0.17 0.17 0.11 0.10 0.13 0.15 0.17 0.25 0.34 0.49 0.59 0.63 0.67 0.77 0.86 0.98 1.09 1.18 1.25 1.26 1.18 1.29 1.32 1.24 1.26 1.24 1.27 1.32 1.36 1.36 1.29 1.30 1.27 1.21 1.20 1.25 1.17 1.33 1.39 1.49 1.53 1.54 1.45 1.36 1.33 1.24 1.20
0.24 0.21 0.21 0.20 0.16 0.10 0.09 0.11 0.18 0.19 0.27 0.35 0.47 0.60 0.63 0.69 0.74 0.83 0.96 1.12 1.21 1.25 1.26 1.26 1.31 1.27 1.28 1.33 1.33 1.33 1.36 1.40 1.38 1.26 1.28 1.28 1.24 1.22 1.13 1.31 1.37 1.44 1.50 1.52 1.43 1.39 1.34 1.23 1.15
0.29 0.23 0.22 0.16 0.13 0.15 0.14 0.11 0.18 0.16 0.18 0.27 0.42 0.53 0.58 0.64 0.69 0.75 0.81 0.96 1.14 1.19 1.24 1.21 1.29 1.29 1.27 1.34 1.36 1.31 1.36 1.40 1.36 1.24 1.25 1.31 1.28 1.18 1.14 1.24 1.35 1.41 1.49 1.48 1.39 1.32 1.36 1.33 1.18
Wind_Speed
5 5 3 1 2 3 3 3 4 5 6 5 7 5 6 5 5 5 15 17 20 23 21 19 19 19 18 18 19 18 16 15 14 13 13 13 12 11 10 10 10 10 10 10 10 10 10 9 9
6 6 3 3 4 5 3 4 5 4 6 9 9 8 6 6 7 12 16 19 23 21 21 20 19 18 18 18 18 17 16 15 14 13 13 12 11 11 10 10 10 10 10 10 9 9 9 8 7
3 4 5 5 5 5 4 6 5 8 7 6 6 5 5 5 10 18 20 22 21 20 20 19 18 18 18 18 17 16 15 14 13 13 12 12 11 11 11 10 10 10 10 9 9 9 8 8 7
9 5 5 5 4 4 4 6 7 7 6 5 8 7 8 12 17 18 21 21 21 19 19 19 18 18 18 17 16 15 14 13 13 12 12 11 11 11 11 11 11 10 10 9 9 9 8 8 7
5 5 5 5 3 2 3 7 6 5 5 7 6 9 11 12 16 21 20 21 19 18 18 18 18 18 17 16 15 14 14 13 12 12 11 11 11 11 11 10 10 10 10 10 10 9 9 9 8
4 3 5 4 4 3 4 6 4 5 6 8 10 11 9 13 18 20 19 19 18 18 17 17 18 17 16 15 15 14 13 12 12 11 10 10 11 11 10 10 10 10 10 10 10 10 9 10 9
3 3 3 3 3 4 5 5 5 5 6 6 10 8 9 14 18 19 18 18 17 17 17 17 17 17 16 15 14 14 13 12 11 11 10 10 10 10 10 11 11 11 11 11 11 11 10 10 10
4 4 4 3 3 3 5 5 6 6 5 9 10 7 10 15 18 18 17 17 16 16 16 16 16 16 16 15 14 13 12 11 11 10 10 9 10 10 10 10 11 11 11 11 11 10 10 10 10
5 4 3 3 4 1 6 5 5 6 6 5 7 5 12 18 18 17 16 16 16 16 16 16 16 16 16 15 14 13 12 11 10 10 9 9 9 9 9 9 10 10 10 9 9 9 9 9 9
8 7 5 5 3 3 6 5 6 5 6 4 4 7 15 17 17 17 17 16 16 17 17 17 17 16 16 15 14 13 12 11 10 9 8 8 8 8 8 8 8 8 8 8 8 7 8 8 9
9 9 7 3 2 2 6 4 4 5 4 3 7 11 15 17 16 16 16 16 17 18 18 18 17 17 16 15 14 13 12 10 9 8 7 6 6 6 7 7 7 6 6 7 7 7 8 8 8
10 12 9 4 1 2 4 6 5 7 2 2 5 12 15 17 16 17 17 17 18 19 18 18 18 17 16 15 14 13 12 10 9 8 7 6 5 5 5 5 5 5 5 6 6 6 7 7 7
13 11 11 10 6 6 5 8 9 9 3 4 7 11 14 15 16 17 17 17 19 19 19 19 18 17 16 15 14 13 12 10 9 8 6 5 4 4 3 3 4 4 4 4 5 5 6 6 6
13 13 13 11 10 8 7 10 10 10 8 6 9 9 12 15 17 17 18 18 19 20 19 19 18 17 16 15 14 13 12 10 9 8 6 5 4 2 2 2 2 3 4 4 4 5 6 4 5
17 15 13 12 8 9 8 9 14 9 11 9 10 9 9 14 17 18 18 19 20 20 20 19 18 18 17 16 14 13 12 10 9 8 7 5 4 2 0 1 2 3 4 4 4 6 6 5 5
12 13 12 10 7 8 9 16 15 11 13 12 11 10 10 14 17 17 19 20 21 20 20 19 18 18 17 16 14 13 12 11 9 8 8 7 5 3 2 1 3 4 4 4 5 6 7 5 5
15 14 14 11 11 8 12 9 13 15 15 13 12 12 12 12 17 18 19 20 21 21 19 19 18 18 17 16 15 13 13 11 10 9 8 7 6 5 3 2 3 4 5 4 5 7 6 5 5
19 16 14 13 10 9 11 10 9 15 16 15 14 13 13 13 18 19 20 21 22 21 20 18 18 18 17 16 15 14 13 11 10 10 9 8 7 6 5 4 4 4 4 4 5 5 5 5 6
19 18 16 12 11 9 13 10 11 15 16 15 15 15 14 14 17 18 20 21 22 21 20 19 19 18 17 16 15 14 13 12 10 10 9 8 8 8 6 5 5 4 3 2 4 5 5 6 6
22 19 19 15 14 11 10 13 13 16 20 20 17 18 17 15 14 19 21 22 23 22 22 21 20 19 18 17 15 14 14 13 12 11 10 9 9 9 8 7 6 4 2 1 2 4 5 6 5
24 24 19 17 12 13 11 13 12 15 15 20 20 20 19 18 16 17 21 22 23 24 23 22 22 21 20 18 16 15 13 13 14 13 12 11 10 9 9 8 7 5 3 2 1 2 5 5 6
24 23 20 19 15 16 14 14 15 14 20 21 21 21 21 21 19 18 19 20 23 24 24 24 23 22 21 20 18 17 16 14 15 14 14 13 12 10 10 8 8 6 4 3 2 1 3 4 6
21 22 23 21 21 19 20 15 16 15 17 22 22 23 21 21 22 21 20 20 20 23 24 24 24 24 23 22 21 20 18 17 15 15 14 14 13 12 11 10 9 8 6 4 4 2 2 3 5
21 16 18 19 19 23 23 20 18 18 19 22 23 24 22 22 22 22 22 20 20 20 23 23 24 24 25 24 24 22 21 19 17 16 16 15 14 12 12 11 11 9 7 6 5 3 2 2 4
22 18 17 18 20 20 20 22 24 18 23 23 24 25 24 23 24 24 23 22 22 22 22 23 25 25 25 26 25 25 23 22 20 18 17 17 16 14 14 13 12 11 8 7 6 4 3 2 4
22 25 19 19 18 18 17 21 19 23 23 22 24 25 25 25 26 26 26 25 23 24 24 24 23 25 27 27 27 27 25 24 23 21 19 19 18 17 16 16 14 13 11 8 7 6 4 4 4
22 25 24 16 16 15 20 21 23 21 23 24 25 23 23 23 25 27 27 28 26 25 26 25 24 24 24 25 27 27 26 26 24 23 22 21 20 19 19 18 17 15 13 11 9 7 6 5 5
24 22 20 20 20 18 16 18 18 21 27 27 25 25 24 23 24 25 26 27 27 27 27 27 26 25 24 24 25 26 27 26 26 25 24 22 22 21 22 21 19 17 15 13 11 10 8 7 7
24 25 21 21 21 18 15 18 18 21 23 27 29 28 26 24 24 25 26 28 29 29 28 28 27 26 25 25 24 24 25 26 27 27 26 25 24 23 24 24 21 19 18 15 14 12 10 9 9
36 30 28 24 24 23 19 19 9 16 21 25 24 27 27 25 23 24 25 27 29 31 30 29 28 27 27 26 25 25 25 26 26 27 28 27 25 25 26 26 24 22 20 18 16 15 13 12 12
Wind_Direction
117 123 120 104 140 96 96 91 96 88 84 94 111 108 127 122 132 130 138 137 139 141 142 138 135 133 131 130 128 126 122 118 115 111 108 106 101 97 93 89 87 86 84 83 83 82 82 85 85
113 105 95 84 103 106 101 94 100 103 102 106 102 101 94 118 129 133 136 138 141 140 142 140 136 135 133 132 130 127 123 120 115 111 107 103 98 95 92 89 87 86 84 81 80 80 78 78 79
137 115 90 101 103 124 94 72 94 111 121 116 110 97 104 128 136 138 140 140 142 141 142 142 139 137 135 134 131 128 125 120 115 111 107 100 96 93 90 87 85 85 82 80 78 77 73 71 73
114 108 99 98 106 100 98 84 109 106 99 96 114 95 103 121 134 139 141 143 142 142 143 144 141 139 138 136 133 129 126 121 116 112 106 99 95 94 90 86 83 82 81 79 77 74 69 66 67
122 103 84 79 109 118 88 105 106 86 90 110 116 116 119 129 138 142 142 145 144 145 146 146 145 144 141 139 136 131 126 122 117 113 106 98 97 93 89 83 81 80 79 77 76 73 68 64 63
103 106 110 95 106 92 90 119 95 80 104 115 119 120 128 138 143 148 148 149 148 148 149 149 150 149 146 143 139 135 129 123 119 114 107 102 97 92 88 83 81 80 78 77 75 72 67 63 59
135 139 152 142 109 91 109 117 81 97 120 123 136 127 138 146 151 150 150 151 152 152 152 153 154 154 151 148 144 139 133 127 122 116 109 103 99 92 88 84 83 81 80 77 76 72 69 65 58
155 130 162 161 112 83 120 106 98 105 101 134 142 146 154 159 156 156 155 157 158 158 157 156 157 157 155 152 149 144 138 132 126 119 110 105 99 96 90 87 84 82 81 78 75 71 66 58 54
179 154 159 170 150 125 130 115 112 93 120 154 149 153 157 157 159 162 163 165 166 166 165 162 161 160 159 157 154 150 145 139 132 124 114 108 100 96 92 88 84 81 82 76 71 65 54 50 48
188 178 182 153 153 229 180 135 135 92 118 143 149 137 157 162 165 167 170 171 172 171 169 168 165 164 163 162 160 157 153 147 140 132 124 114 106 97 90 89 84 83 76 71 62 52 47 44 42
191 191 186 186 35 112 175 183 163 121 140 132 161 161 168 171 172 174 177 177 176 174 173 171 169 168 167 167 166 164 161 157 150 145 136 122 113 100 89 91 84 75 67 57 55 46 39 40 34
202 208 208 221 65 128 178 195 211 185 115 142 159 164 170 178 181 181 181 181 178 177 176 175 173 173 172 172 171 169 166 163 159 154 147 137 121 106 96 84 69 66 57 46 39 35 31 28 33
216 219 222 239 265 238 225 210 208 212 218 146 141 164 175 183 186 186 184 182 181 180 180 178 177 177 177 176 175 174 173 170 169 166 160 154 136 115 99 83 60 54 40 31 27 18 18 21 36
210 223 239 251 254 240 224 220 207 216 192 167 165 163 180 187 186 185 185 184 184 183 182 182 182 182 181 181 181 180 180 179 179 178 175 171 163 138 102 66 31 10 6 5 11 11 5 11 9
230 240 244 241 235 244 227 218 216 204 190 188 187 183 183 189 188 188 188 187 186 185 185 186 187 186 186 186 185 185 187 188 189 190 192 193 194 192 177 21 350 346 348 358 347 352 352 349 348
228 221 228 231 223 236 198 227 221 202 194 197 196 194 192 191 190 190 190 189 188 188 188 189 189 190 190 191 190 191 193 194 196 200 202 206 211 216 225 317 346 344 342 336 339 337 337 332 324
230 224 224 240 234 237 210 236 218 203 197 198 198 198 197 194 195 193 191 190 189 189 189 190 191 191 192 194 195 197 198 201 207 209 210 214 221 222 226 273 319 337 345 342 345 344 349 349 342
219 221 228 232 233 228 217 233 213 200 199 201 202 202 200 199 199 195 193 190 190 191 192 192 192 192 193 195 197 199 203 207 213 216 215 218 219 221 235 266 297 319 332 343 354 4 13 9 359
221 224 226 231 235 220 226 226 222 209 208 204 205 204 202 202 196 196 195 193 193 194 194 195 195 196 196 197 198 202 208 211 213 211 212 218 223 230 241 262 287 304 319 334 2 19 20 14 20
222 229 232 236 237 230 228 229 227 219 217 211 208 207 205 199 195 198 197 197 198 199 200 201 202 201 203 204 206 209 212 216 217 218 222 227 232 234 246 254 273 277 290 290 355 15 10 5 12
223 224 223 227 237 232 230 246 231 228 225 216 213 211 210 207 200 196 200 201 203 205 206 207 207 207 208 210 211 213 216 219 221 226 229 231 234 239 245 246 252 246 250 258 296 4 13 28 25
224 220 222 223 226 234 229 244 237 225 220 216 211 211 212 211 209 206 205 207 209 209 210 211 211 212 214 214 215 217 219 220 224 229 231 234 235 241 239 238 232 228 234 243 251 328 5 23 22
224 218 222 227 233 237 235 242 237 221 222 219 215 209 210 211 211 211 209 209 210 210 212 214 215 216 218 218 220 222 224 227 230 230 233 236 235 239 235 232 224 223 230 236 232 252 337 4 13
216 218 226 233 234 241 231 226 236 223 221 220 218 214 215 214 214 214 214 214 214 214 214 215 216 219 221 222 223 225 226 228 229 230 230 232 233 235 232 225 220 222 228 228 232 233 280 345 357
216 213 230 235 230 242 226 230 231 224 223 217 216 217 218 218 219 218 218 216 217 217 217 218 220 223 223 224 225 227 228 229 230 231 232 231 232 233 228 222 219 219 222 221 222 230 253 302 337
217 213 217 226 233 238 227 234 231 224 226 221 221 221 224 224 222 221 221 221 221 221 221 221 223 226 226 227 228 228 229 230 231 232 233 234 235 234 228 223 221 218 219 222 223 232 247 275 309
219 220 221 232 240 244 237 248 245 228 225 222 223 227 224 223 224 224 225 225 226 225 224 222 224 225 225 226 227 228 229 230 231 232 234 235 235 233 225 223 220 219 220 223 226 232 246 263 289
218 216 220 229 230 241 247 242 236 228 224 222 225 225 227 226 226 226 226 226 227 227 224 223 224 224 225 226 227 229 229 231 233 233 234 234 234 232 225 221 220 221 222 225 229 237 246 260 276
219 221 224 225 228 233 247 246 237 234 229 227 226 224 227 227 230 231 231 229 228 227 225 224 225 226 226 228 229 230 230 232 233 234 234 234 234 231 225 220 221 221 224 227 232 237 247 259 272
225 225 223 227 232 241 241 243 249 237 228 226 226 227 228 231 232 232 233 232 229 226 225 225 226 227 228 229 230 232 232 233 234 234 233 233 233 230 224 220 222 223 226 229 233 238 248 258 268